Погода в Гадамесе

Ливия     30°07′31″N   9°29′22″E
темп.,
°C
ветер,
м/с
пор.,
м/с
влажн.,
%
обл.,
%
осадки,
мм/ч
давл.,
гПа
погр.,
м
15 августа, пн
пн1523:00+34св33170 0.0 101214
02:00+32вюв22190 0.0 101111
05:00+30ю33210 0.0 101113
08:00+30ю33190 0.0 101233
11:00+37ююз44120 0.0 1013819
14:00+40ю13110 0.0 10112463
17:00+42вюв34100 0.0 10093932
20:00+38вюв44120 0.0 100929
16 августа, вт
вт1623:00+35с22150 0.0 101011
02:00+35ссв34150 0.0 100915
05:00+31ююв22199 0.0 101011
08:00+32ююз33172 0.0 101131
11:00+39ююз33122 0.0 1012988
14:00+42юз14100 0.0 10104230
17:00+43вюв1293 0.0 10094701
20:00+39вюв33113 0.0 100914
17 августа, ср
ср1723:00+36юв23133 0.0 101113
02:00+34ююв22143 0.0 101013
05:00+33ююв34150 0.0 101017
08:00+33ююв510165 0.0 1011176
11:00+41ююз78100 0.0 10111190
14:00+43юз4490 0.0 10104585
17:00+43ююз2283 0.0 10085084
20:00+38вюв111282 0.0 100812
18 августа, чт
чт1823:00+36юв221321 0.0 101012
02:00+34ю111575 0.0 101011
05:00+34вюв451525 0.0 101065
08:00+34юв510165 0.0 1011199
11:00+41ю77115 0.0 10111163
14:00+43ю2290 0.0 10094836
17:00+44всв3385 0.0 10085138
20:00+40в4595 0.0 100732
19 августа, пт
пт1923:00+37в55115 0.0 100841
02:00+35вюв1016130 0.0 1009280
05:00+32вюв57204 0.0 100991
08:00+31вюв48245 0.0 1011194
11:00+38юв55145 0.0 1011744
14:00+41в32100 0.0 10091807
17:00+43св5680 0.0 10073060
20:00+38св44100 0.0 100816